Weather History for Provincetown, MA

Change the Weather History Date:

Sunday, December 23, 2012

  Actual Average Record
Temperature  
Mean Temperature 36 °F -  
Max Temperature 39 °F 39 °F 56 °F (1957)
Min Temperature 32 °F 29 °F 17 °F (1955)
Degree Days  
Heating Degree Days 30    
Moisture  
Dew Point 21 °F    
Average Humidity 53    
Maximum Humidity 61    
Minimum Humidity 42    
Precipitation  
Precipitation 0.00 in - - ()
Sea Level Pressure  
Sea Level Pressure 29.82 in    
Wind  
Wind Speed 22 mph (West)    
Max Wind Speed 28 mph    
Max Gust Speed 38 mph    
Visibility 10 miles    
Events      
Averages and records for this station are not official NWS values.
T = Trace of Precipitation, MM = Missing Value Source: NWS Daily Summary

Daily Weather History Graph

Daily Weather History Graph

Search for Another Location

Airport:

Trip Planner

Search our weather history database for the weather conditions in past years. The results will help you decide how hot, cold, wet, or windy it might be!

Date:

Astronomy

Dec. 23, 2012 Rise Set
Actual Time 7:06 AM EST 4:13 PM EST
Civil Twilight 6:35 AM EST 4:45 PM EST
Nautical Twilight 5:59 AM EST 5:20 PM EST
Astronomical Twilight 5:25 AM EST 5:54 PM EST
Moon 1:04 PM EST (12/23) 2:44 AM EST (12/23)
Length of Visible Light 10h 10m
Length of Day
9h 06m
Waxing Gibbous, 81% of the Moon is Illuminated
Dec 23
Waxing Gibbous
Dec 28
Full
Jan 4
Last Quarter
Jan 11
New
Jan 18
First Quarter

Hourly Weather History & Observations

Time (EST) Temp. Windchill Dew Point Humidity Pressure Visibility Wind Dir Wind Speed Gust Speed Precip Events Conditions
12:15 AM 32.0 °F 18.4 °F 19.4 °F 60% 29.64 in 10.0 mi WNW 26.5 mph 34.5 mph N/A   Mostly Cloudy
1:35 AM 33.8 °F 20.5 °F 19.4 °F 56% 29.67 in 10.0 mi WNW 27.6 mph 36.8 mph N/A   Partly Cloudy
2:15 AM 32.0 °F 18.9 °F 17.6 °F 55% 29.70 in 10.0 mi WNW 24.2 mph 38.0 mph N/A   Scattered Clouds
2:35 AM 33.8 °F 21.3 °F 17.6 °F 52% 29.71 in 10.0 mi WNW 24.2 mph 33.4 mph N/A   Mostly Cloudy
2:55 AM 33.8 °F 20.8 °F 19.4 °F 56% 29.72 in 10.0 mi West 26.5 mph 32.2 mph N/A   Mostly Cloudy
3:15 AM 33.8 °F 20.8 °F 17.6 °F 52% 29.73 in 10.0 mi West 26.5 mph 33.4 mph N/A   Mostly Cloudy
3:35 AM 33.8 °F 21.3 °F 17.6 °F 52% 29.74 in 10.0 mi West 24.2 mph 32.2 mph N/A   Mostly Cloudy
3:55 AM 32.0 °F 18.6 °F 17.6 °F 55% 29.75 in 10.0 mi West 25.3 mph 33.4 mph N/A   Scattered Clouds
4:15 AM 32.0 °F 19.2 °F 17.6 °F 55% 29.75 in 10.0 mi West 23.0 mph 31.1 mph N/A   Partly Cloudy
5:15 AM 33.8 °F 21.3 °F 17.6 °F 52% 29.77 in 10.0 mi WNW 24.2 mph 29.9 mph N/A   Clear
5:35 AM 33.8 °F 22.5 °F 17.6 °F 52% 29.78 in 10.0 mi West 19.6 mph 28.8 mph N/A   Partly Cloudy
5:55 AM 33.8 °F 21.3 °F 19.4 °F 56% 29.79 in 10.0 mi West 24.2 mph 32.2 mph N/A   Partly Cloudy
6:15 AM 33.8 °F 21.9 °F 19.4 °F 56% 29.80 in 10.0 mi West 21.9 mph 27.6 mph N/A   Clear
6:35 AM 33.8 °F 22.8 °F 17.6 °F 52% 29.82 in 10.0 mi West 18.4 mph 28.8 mph N/A   Clear
6:55 AM 33.8 °F 21.3 °F 17.6 °F 52% 29.82 in 10.0 mi West 24.2 mph 29.9 mph N/A   Partly Cloudy
7:15 AM 33.8 °F 21.9 °F 17.6 °F 52% 29.83 in 10.0 mi West 21.9 mph 29.9 mph N/A   Scattered Clouds
7:35 AM 33.8 °F 22.2 °F 17.6 °F 52% 29.84 in 10.0 mi West 20.7 mph 28.8 mph N/A   Scattered Clouds
7:55 AM 33.8 °F 22.2 °F 17.6 °F 52% 29.84 in 10.0 mi West 20.7 mph 33.4 mph N/A   Partly Cloudy
8:55 AM 35.6 °F 25.9 °F 15.8 °F 44% 29.85 in 10.0 mi West 16.1 mph 32.2 mph N/A   Clear
9:15 AM 35.6 °F 24.8 °F 17.6 °F 48% 29.85 in 10.0 mi West 19.6 mph 27.6 mph N/A   Clear
9:35 AM 35.6 °F 24.8 °F 15.8 °F 44% 29.86 in 10.0 mi West 19.6 mph 27.6 mph N/A   Clear
9:55 AM 35.6 °F 25.5 °F 17.6 °F 48% 29.86 in 10.0 mi West 17.3 mph 29.9 mph N/A   Clear
10:35 AM 37.4 °F 27.8 °F 17.6 °F 45% 29.86 in 10.0 mi West 17.3 mph 26.5 mph N/A   Clear
10:55 AM 37.4 °F 26.6 °F 17.6 °F 45% 29.85 in 10.0 mi West 21.9 mph 31.1 mph N/A   Clear
11:15 AM 39.2 °F 29.0 °F 17.6 °F 42% 29.85 in 10.0 mi West 21.9 mph 31.1 mph N/A   Clear
11:35 AM 39.2 °F 29.8 °F 17.6 °F 42% 29.84 in 10.0 mi West 18.4 mph 32.2 mph N/A   Clear
11:55 AM 39.2 °F 29.0 °F 19.4 °F 45% 29.83 in 10.0 mi West 21.9 mph 28.8 mph N/A   Clear
12:15 PM 39.2 °F 29.8 °F 21.2 °F 49% 29.82 in 10.0 mi West 18.4 mph 27.6 mph N/A   Clear
12:35 PM 39.2 °F 29.0 °F 19.4 °F 45% 29.82 in 10.0 mi West 21.9 mph 31.1 mph N/A   Clear
1:15 PM 39.2 °F 29.0 °F 21.2 °F 49% 29.82 in 10.0 mi West 21.9 mph 26.5 mph N/A   Clear
1:55 PM 39.2 °F 30.5 °F 21.2 °F 49% 29.81 in 10.0 mi West 16.1 mph 25.3 mph N/A   Scattered Clouds
2:35 PM 39.2 °F 29.6 °F 23.0 °F 52% 29.82 in 10.0 mi West 19.6 mph 26.5 mph N/A   Overcast
2:55 PM 37.4 °F 28.2 °F 21.2 °F 52% 29.82 in 10.0 mi West 16.1 mph 25.3 mph N/A   Overcast
3:15 PM 39.2 °F 30.5 °F 21.2 °F 49% 29.82 in 10.0 mi West 16.1 mph 21.9 mph N/A   Overcast
3:35 PM 39.2 °F 31.2 °F 24.8 °F 56% 29.82 in 10.0 mi West 13.8 mph 21.9 mph N/A   Overcast
3:55 PM 39.2 °F 30.8 °F 23.0 °F 52% 29.82 in 10.0 mi West 15.0 mph 24.2 mph N/A   Overcast
4:15 PM 39.2 °F 30.8 °F 21.2 °F 49% 29.82 in 10.0 mi West 15.0 mph 23.0 mph N/A   Overcast
4:35 PM 37.4 °F 28.2 °F 23.0 °F 56% 29.83 in 10.0 mi West 16.1 mph - N/A   Overcast
4:55 PM 37.4 °F 28.9 °F 24.8 °F 60% 29.84 in 10.0 mi West 13.8 mph 21.9 mph N/A   Scattered Clouds
5:35 PM 37.4 °F 29.3 °F 23.0 °F 56% 29.85 in 10.0 mi West 12.7 mph - N/A   Mostly Cloudy
5:55 PM 37.4 °F 30.3 °F 24.8 °F 60% 29.84 in 10.0 mi WSW 10.4 mph 16.1 mph N/A   Scattered Clouds
6:15 PM 37.4 °F 29.8 °F 24.8 °F 60% 29.85 in 10.0 mi WSW 11.5 mph - N/A   Clear
6:35 PM 37.4 °F 28.9 °F 24.8 °F 60% 29.85 in 10.0 mi WSW 13.8 mph - N/A   Scattered Clouds
6:55 PM 37.4 °F 29.3 °F 24.8 °F 60% 29.86 in 10.0 mi WSW 12.7 mph - N/A   Partly Cloudy
7:35 PM 37.4 °F 28.9 °F 24.8 °F 60% 29.86 in 10.0 mi WSW 13.8 mph - N/A   Clear
7:55 PM 37.4 °F 28.5 °F 24.8 °F 60% 29.86 in 10.0 mi WSW 15.0 mph - N/A   Clear
9:15 PM 39.2 °F 30.2 °F 26.6 °F 61% 29.87 in 10.0 mi WSW 17.3 mph 23.0 mph N/A   Overcast
9:55 PM 39.2 °F 29.8 °F 24.8 °F 56% 29.87 in 10.0 mi West 18.4 mph 25.3 mph N/A   Mostly Cloudy
10:35 PM 39.2 °F 29.0 °F 24.8 °F 56% 29.87 in 10.0 mi West 21.9 mph 28.8 mph N/A   Partly Cloudy
10:55 PM 39.2 °F 29.6 °F 24.8 °F 56% 29.88 in 10.0 mi West 19.6 mph 32.2 mph N/A   Clear
11:15 PM 37.4 °F 27.2 °F 24.8 °F 60% 29.87 in 10.0 mi West 19.6 mph 29.9 mph N/A   Clear
11:35 PM 39.2 °F 29.3 °F 24.8 °F 56% 29.87 in 10.0 mi West 20.7 mph 25.3 mph N/A   Clear